Simultaneous Nadir Overpasses (SNOs) Predictions

Prediction of SNOs between GOES-15 and TERRA Satellite Orbit:

Table of predicted SNOs for the next 14.0 days since TLE Epoch: 7/23/2016
Index Date Time (GOES-15) GOES-15 Lat,Lon TERRA Lat,Lon Distance(km) Time Diff (sec)
1 07/24/2016 07:22:54 -0.01,-135.18 0.38,-133.48 193.20 80
2 07/24/2016 19:46:49 0.04,-135.17 0.75,-138.63 392.93 80
3 07/26/2016 19:34:36 0.03,-135.11 0.17,-135.66 63.45 80
4 07/28/2016 19:19:44 0.03,-135.04 -0.47,-132.71 265.40 80
5 07/29/2016 07:43:46 -0.06,-135.01 -0.67,-137.89 327.25 80
6 07/31/2016 07:31:33 -0.06,-134.93 -0.08,-134.92 3.03 80
7 08/02/2016 07:16:42 -0.05,-134.85 0.58,-131.96 328.63 80
8 08/02/2016 19:40:36 0.08,-134.84 0.55,-137.11 258.19 80
9 08/04/2016 19:25:43
